Time,TemperatureF,DewpointF,PressureIn,WindDirection,WindDirectionDegrees,WindSpeedMPH,WindSpeedGustMPH,Humidity,HourlyPrecipIn,Conditions,Clouds,dailyrainin,SoftwareType,DateUTC
2013-02-09 00:00:00,19.2,18.0,29.72,NW,318,6.0,8.0,95,0.00,,OVC006,0.00,VWS V14.01,2013-02-09 05:00:00,
2013-02-09 00:01:00,19.5,18.3,29.71,ENE,70,3.0,5.0,95,0.00,,,0.00,VWS V14.01,2013-02-09 05:01:00,
2013-02-09 00:10:00,19.5,18.3,29.72,SSE,149,0.0,8.0,95,0.00,,,0.00,VWS V14.01,2013-02-09 05:10:00,
2013-02-09 00:20:00,19.4,18.2,29.72,North,354,3.0,6.0,95,0.00,,,0.00,VWS V14.01,2013-02-09 05:20:00,
2013-02-09 00:30:00,19.4,18.2,29.72,NW,309,2.0,6.0,95,0.00,,,0.00,VWS V14.01,2013-02-09 05:30:00,
2013-02-09 00:40:00,19.3,18.1,29.73,West,280,1.0,9.0,95,0.00,,,0.00,VWS V14.01,2013-02-09 05:40:00,
2013-02-09 00:50:00,19.2,18.0,29.73,WNW,302,3.0,14.0,95,0.00,,,0.00,VWS V14.01,2013-02-09 05:50:00,
2013-02-09 01:00:00,19.2,18.0,29.72,NW,318,6.0,8.0,95,0.00,,,0.00,VWS V14.01,2013-02-09 06:00:00,
2013-02-09 01:10:00,19.2,18.0,29.72,NNE,30,2.0,10.0,95,0.00,,,0.00,VWS V14.01,2013-02-09 06:10:00,
2013-02-09 01:20:00,19.2,18.0,29.72,East,87,1.0,14.0,95,0.00,,,0.00,VWS V14.01,2013-02-09 06:20:00,
2013-02-09 01:30:00,19.2,18.0,29.72,NW,311,4.0,9.0,95,0.00,,,0.00,VWS V14.01,2013-02-09 06:30:00,
2013-02-09 01:40:00,19.3,18.1,29.73,NW,304,3.0,11.0,95,0.00,,,0.00,VWS V14.01,2013-02-09 06:40:00,
2013-02-09 01:50:00,19.3,18.1,29.73,WNW,290,6.0,13.0,95,0.00,,,0.00,VWS V14.01,2013-02-09 06:50:00,
2013-02-09 02:00:00,19.5,18.3,29.73,NNE,15,5.0,11.0,95,0.00,,,0.00,VWS V14.01,2013-02-09 07:00:00,
2013-02-09 02:10:00,19.6,18.4,29.73,NNW,338,5.0,11.0,95,0.00,,,0.00,VWS V14.01,2013-02-09 07:10:00,
2013-02-09 02:20:00,19.8,18.6,29.72,WNW,291,3.0,8.0,95,0.00,,,0.00,VWS V14.01,2013-02-09 07:20:00,
2013-02-09 02:30:00,20.0,18.8,29.73,WNW,283,4.0,9.0,95,0.00,,,0.00,VWS V14.01,2013-02-09 07:30:00,
2013-02-09 02:40:00,20.1,18.9,29.73,NNW,335,6.0,11.0,95,0.00,,,0.00,VWS V14.01,2013-02-09 07:40:00,
2013-02-09 02:50:00,20.1,18.9,29.72,NNW,332,4.0,14.0,95,0.00,,,0.00,VWS V14.01,2013-02-09 07:50:00,
2013-02-09 03:00:00,20.7,19.7,29.74,NW,314,5.0,13.0,96,0.00,,OVC006,0.00,VWS V14.01,2013-02-09 08:00:00,
2013-02-09 03:01:00,20.2,19.0,29.72,WNW,285,2.0,10.0,95,0.00,,,0.00,VWS V14.01,2013-02-09 08:01:00,
2013-02-09 03:10:00,20.2,19.0,29.72,NW,323,3.0,12.0,95,0.00,,,0.00,VWS V14.01,2013-02-09 08:10:00,
2013-02-09 03:20:00,20.3,19.1,29.73,NW,318,3.0,12.0,95,0.00,,,0.00,VWS V14.01,2013-02-09 08:20:00,
2013-02-09 03:30:00,20.5,19.5,29.73,NW,312,11.0,13.0,96,0.00,,,0.00,VWS V14.01,2013-02-09 08:30:00,
2013-02-09 03:40:00,20.6,19.6,29.73,West,270,5.0,16.0,96,0.00,,,0.00,VWS V14.01,2013-02-09 08:40:00,
2013-02-09 03:50:00,20.6,19.6,29.73,WNW,285,11.0,13.0,96,0.00,,,0.00,VWS V14.01,2013-02-09 08:50:00,
2013-02-09 04:00:00,20.7,19.7,29.74,NW,314,5.0,13.0,96,0.00,,,0.00,VWS V14.01,2013-02-09 09:00:00,
2013-02-09 04:10:00,20.6,19.4,29.74,WNW,285,5.0,14.0,95,0.00,,,0.00,VWS V14.01,2013-02-09 09:10:00,
2013-02-09 04:20:00,20.6,19.4,29.74,NW,318,3.0,13.0,95,0.00,,,0.00,VWS V14.01,2013-02-09 09:20:00,
2013-02-09 04:30:00,20.5,19.3,29.74,WNW,290,5.0,18.0,95,0.00,,,0.00,VWS V14.01,2013-02-09 09:30:00,
2013-02-09 04:40:00,20.3,19.1,29.74,NW,312,7.0,15.0,95,0.00,,,0.00,VWS V14.01,2013-02-09 09:40:00,
2013-02-09 04:50:00,20.2,19.0,29.74,NW,314,8.0,16.0,95,0.00,,,0.00,VWS V14.01,2013-02-09 09:50:00,
2013-02-09 05:00:00,18.6,17.2,29.76,NW,312,6.0,14.0,94,0.00,,OVC006,0.00,VWS V14.01,2013-02-09 10:00:00,
2013-02-09 05:01:00,20.0,18.8,29.74,NW,305,9.0,14.0,95,0.00,,,0.00,VWS V14.01,2013-02-09 10:01:00,
2013-02-09 05:10:00,19.7,18.5,29.75,NNE,27,4.0,14.0,95,0.00,,,0.00,VWS V14.01,2013-02-09 10:10:00,
2013-02-09 05:20:00,19.5,18.3,29.75,WSW,255,5.0,13.0,95,0.00,,,0.00,VWS V14.01,2013-02-09 10:20:00,
2013-02-09 05:30:00,19.2,18.0,29.75,West,277,4.0,13.0,95,0.00,,,0.00,VWS V14.01,2013-02-09 10:30:00,
2013-02-09 05:40:00,19.0,17.8,29.76,NW,323,5.0,14.0,95,0.00,,,0.00,VWS V14.01,2013-02-09 10:40:00,
2013-02-09 05:50:00,18.9,17.7,29.76,NW,326,6.0,12.0,95,0.00,,,0.00,VWS V14.01,2013-02-09 10:50:00,
2013-02-09 06:00:00,18.6,17.2,29.76,NW,312,6.0,14.0,94,0.00,,,0.00,VWS V14.01,2013-02-09 11:00:00,
2013-02-09 06:10:00,18.2,16.8,29.77,NW,307,8.0,17.0,94,0.00,,,0.00,VWS V14.01,2013-02-09 11:10:00,
2013-02-09 06:20:00,17.9,16.5,29.77,NW,314,3.0,15.0,94,0.00,,,0.00,VWS V14.01,2013-02-09 11:20:00,
2013-02-09 06:30:00,17.7,16.3,29.78,NW,314,15.0,16.0,94,0.00,,,0.00,VWS V14.01,2013-02-09 11:30:00,
2013-02-09 06:40:00,17.5,16.1,29.78,NW,305,6.0,15.0,94,0.00,,,0.00,VWS V14.01,2013-02-09 11:40:00,
2013-02-09 06:50:00,17.3,15.9,29.78,WNW,303,6.0,11.0,94,0.00,,,0.00,VWS V14.01,2013-02-09 11:50:00,
2013-02-09 07:00:00,16.4,14.7,29.83,North,352,3.0,17.0,93,0.00,,OVC006,0.00,VWS V14.01,2013-02-09 12:00:00,
2013-02-09 07:01:00,17.0,15.6,29.79,NNW,341,8.0,19.0,94,0.00,,,0.00,VWS V14.01,2013-02-09 12:01:00,
2013-02-09 07:10:00,16.9,15.5,29.79,NNW,328,6.0,12.0,94,0.00,,,0.00,VWS V14.01,2013-02-09 12:10:00,
2013-02-09 07:20:00,16.8,15.4,29.80,WNW,294,7.0,16.0,94,0.00,,,0.00,VWS V14.01,2013-02-09 12:20:00,
2013-02-09 07:30:00,16.6,15.2,29.81,NNE,32,3.0,15.0,94,0.00,,,0.00,VWS V14.01,2013-02-09 12:30:00,
2013-02-09 07:40:00,16.5,14.8,29.82,NW,307,3.0,18.0,93,0.00,,,0.00,VWS V14.01,2013-02-09 12:40:00,
2013-02-09 07:50:00,16.5,14.8,29.82,North,349,7.0,15.0,93,0.00,,,0.00,VWS V14.01,2013-02-09 12:50:00,
2013-02-09 08:00:00,16.8,13.6,29.87,NW,320,5.0,16.0,87,0.00,,OVC006,0.00,VWS V14.01,2013-02-09 13:00:00,
2013-02-09 08:01:00,16.4,14.7,29.83,North,352,3.0,17.0,93,0.00,,,0.00,VWS V14.01,2013-02-09 13:01:00,
2013-02-09 08:10:00,16.4,14.7,29.83,WNW,290,6.0,16.0,93,0.00,,,0.00,VWS V14.01,2013-02-09 13:10:00,
2013-02-09 08:20:00,16.4,14.5,29.83,West,261,4.0,13.0,92,0.00,,,0.00,VWS V14.01,2013-02-09 13:20:00,
2013-02-09 08:30:00,16.4,14.2,29.85,NNW,338,8.0,20.0,91,0.00,,,0.00,VWS V14.01,2013-02-09 13:30:00,
2013-02-09 08:40:00,16.7,14.5,29.85,NW,314,4.0,21.0,91,0.00,,,0.00,VWS V14.01,2013-02-09 13:40:00,
2013-02-09 08:50:00,16.8,14.1,29.86,SSW,197,2.0,15.0,89,0.00,,,0.00,VWS V14.01,2013-02-09 13:50:00,
2013-02-09 09:00:00,17.3,13.3,29.89,NW,309,13.0,20.0,84,0.00,,OVC006,0.00,VWS V14.01,2013-02-09 14:00:00,
2013-02-09 09:01:00,16.8,13.6,29.87,NW,320,5.0,16.0,87,0.00,,,0.00,VWS V14.01,2013-02-09 14:01:00,
2013-02-09 09:10:00,17.1,13.9,29.87,NNE,18,6.0,14.0,87,0.00,,,0.00,VWS V14.01,2013-02-09 14:10:00,
2013-02-09 09:20:00,17.2,14.0,29.87,NNE,22,3.0,15.0,87,0.00,,,0.00,VWS V14.01,2013-02-09 14:20:00,
2013-02-09 09:30:00,17.5,14.0,29.88,NNW,328,7.0,16.0,86,0.00,,,0.00,VWS V14.01,2013-02-09 14:30:00,
2013-02-09 09:40:00,17.6,14.7,29.89,NNW,333,5.0,22.0,88,0.00,,,0.00,VWS V14.01,2013-02-09 14:40:00,
2013-02-09 09:50:00,17.4,13.7,29.89,NW,321,7.0,20.0,85,0.00,,,0.00,VWS V14.01,2013-02-09 14:50:00,
2013-02-09 10:00:00,18.1,13.5,29.90,WNW,288,2.0,17.0,82,0.00,,OVC006,0.00,VWS V14.01,2013-02-09 15:00:00,
2013-02-09 10:01:00,17.3,13.3,29.89,NW,309,13.0,20.0,84,0.00,,,0.00,VWS V14.01,2013-02-09 15:01:00,
2013-02-09 10:10:00,17.3,13.6,29.90,NW,319,9.0,20.0,85,0.00,,,0.00,VWS V14.01,2013-02-09 15:10:00,
2013-02-09 10:20:00,17.5,13.8,29.90,NNW,342,11.0,18.0,85,0.00,,,0.00,VWS V14.01,2013-02-09 15:20:00,
2013-02-09 10:30:00,17.8,13.0,29.91,NW,322,10.0,20.0,81,0.00,,OVC006,0.00,VWS V14.01,2013-02-09 15:30:00,
2013-02-09 10:31:00,17.7,13.4,29.90,NNW,338,9.0,17.0,83,0.00,,,0.00,VWS V14.01,2013-02-09 15:31:00,
2013-02-09 10:40:00,18.0,13.7,29.90,WNW,283,5.0,14.0,83,0.00,,,0.00,VWS V14.01,2013-02-09 15:40:00,
2013-02-09 10:50:00,18.4,13.8,29.90,NW,322,7.0,16.0,82,0.00,,,0.00,VWS V14.01,2013-02-09 15:50:00,
2013-02-09 11:00:00,18.1,13.5,29.90,WNW,288,2.0,17.0,82,0.00,,,0.00,VWS V14.01,2013-02-09 16:00:00,
2013-02-09 11:10:00,18.3,14.3,29.91,WNW,297,8.0,26.0,84,0.00,,BKN200,0.00,VWS V14.01,2013-02-09 16:10:00,
2013-02-09 11:20:00,18.3,13.7,29.92,NW,309,8.0,18.0,82,0.00,,BKN200,0.00,VWS V14.01,2013-02-09 16:20:00,
2013-02-09 11:30:00,17.8,13.0,29.91,NW,322,10.0,20.0,81,0.00,,BKN200,0.00,VWS V14.01,2013-02-09 16:30:00,
2013-02-09 11:40:00,17.8,13.2,29.92,NW,314,13.0,18.0,82,0.00,,BKN200,0.00,VWS V14.01,2013-02-09 16:40:00,
2013-02-09 11:50:00,17.7,12.3,29.92,North,352,4.0,17.0,79,0.00,,BKN200,0.00,VWS V14.01,2013-02-09 16:50:00,
2013-02-09 12:00:00,17.4,11.4,29.93,WNW,291,21.0,21.0,77,0.00,,BKN200,0.00,VWS V14.01,2013-02-09 17:00:00,
2013-02-09 12:10:00,17.7,11.1,29.93,NNW,340,6.0,17.0,75,0.00,,BKN200,0.00,VWS V14.01,2013-02-09 17:10:00,
2013-02-09 12:20:00,18.2,10.7,29.94,WNW,283,8.0,13.0,72,0.00,,BKN200,0.00,VWS V14.01,2013-02-09 17:20:00,
2013-02-09 12:30:00,18.4,9.9,29.94,West,271,4.0,16.0,69,0.00,,BKN200,0.00,VWS V14.01,2013-02-09 17:30:00,
2013-02-09 12:40:00,18.9,10.4,29.95,West,269,2.0,16.0,69,0.00,,BKN200,0.00,VWS V14.01,2013-02-09 17:40:00,
2013-02-09 12:50:00,19.1,10.3,29.95,WNW,283,4.0,20.0,68,0.00,,BKN200,0.00,VWS V14.01,2013-02-09 17:50:00,
2013-02-09 13:00:00,22.8,5.6,29.96,NW,316,7.0,16.0,47,0.00,,OVC006,0.00,VWS V14.01,2013-02-09 18:00:00,
2013-02-09 13:01:00,19.0,8.1,29.95,North,359,6.0,18.0,62,0.00,,BKN200,0.00,VWS V14.01,2013-02-09 18:01:00,
2013-02-09 13:10:00,19.8,8.5,29.95,WNW,297,16.0,16.0,61,0.00,,BKN190,0.00,VWS V14.01,2013-02-09 18:10:00,
2013-02-09 13:20:00,21.0,7.8,29.95,North,354,5.0,18.0,56,0.00,,BKN190,0.00,VWS V14.01,2013-02-09 18:20:00,
2013-02-09 13:30:00,21.6,7.1,29.95,West,266,9.0,16.0,53,0.00,,BKN190,0.00,VWS V14.01,2013-02-09 18:30:00,
2013-02-09 13:40:00,22.1,6.8,29.95,North,355,7.0,22.0,51,0.00,,BKN190,0.00,VWS V14.01,2013-02-09 18:40:00,
2013-02-09 13:50:00,22.4,6.2,29.96,NW,307,3.0,15.0,49,0.00,,BKN190,0.00,VWS V14.01,2013-02-09 18:50:00,
2013-02-09 14:00:00,22.8,5.6,29.96,NW,316,7.0,16.0,47,0.00,,BKN190,0.00,VWS V14.01,2013-02-09 19:00:00,
2013-02-09 14:10:00,23.0,6.2,29.97,WNW,283,14.0,17.0,48,0.00,,BKN220,0.00,VWS V14.01,2013-02-09 19:10:00,
2013-02-09 14:20:00,23.3,5.1,29.97,NW,319,7.0,17.0,45,0.00,,BKN220,0.00,VWS V14.01,2013-02-09 19:20:00,
2013-02-09 14:30:00,23.5,4.3,29.97,North,7,9.0,22.0,43,0.00,,BKN220,0.00,VWS V14.01,2013-02-09 19:30:00,
2013-02-09 14:40:00,23.8,4.1,29.98,NW,318,10.0,17.0,42,0.00,,BKN220,0.00,VWS V14.01,2013-02-09 19:40:00,
2013-02-09 14:50:00,24.6,5.3,29.99,NW,311,5.0,12.0,43,0.00,,BKN220,0.00,VWS V14.01,2013-02-09 19:50:00,
2013-02-09 15:00:00,24.9,3.5,30.04,NW,311,5.0,14.0,39,0.00,,OVC006,0.00,VWS V14.01,2013-02-09 20:00:00,
2013-02-09 15:01:00,24.5,4.2,30.00,WNW,302,9.0,20.0,41,0.00,,BKN220,0.00,VWS V14.01,2013-02-09 20:01:00,
2013-02-09 15:10:00,25.0,4.1,30.00,WSW,253,1.0,13.0,40,0.00,,SCT220,0.00,VWS V14.01,2013-02-09 20:10:00,
2013-02-09 15:20:00,25.5,4.0,30.01,WNW,283,3.0,14.0,39,0.00,,SCT220,0.00,VWS V14.01,2013-02-09 20:20:00,
2013-02-09 15:30:00,24.1,3.8,30.06,NNW,329,4.0,13.0,41,0.00,,OVC006,0.00,VWS V14.01,2013-02-09 20:30:00,
2013-02-09 15:31:00,25.0,4.1,30.02,NE,43,1.0,20.0,40,0.00,,SCT220,0.00,VWS V14.01,2013-02-09 20:31:00,
2013-02-09 15:40:00,25.1,3.6,30.03,NW,316,11.0,14.0,39,0.00,,SCT220,0.00,VWS V14.01,2013-02-09 20:40:00,
2013-02-09 15:50:00,24.9,3.5,30.03,NNE,31,5.0,15.0,39,0.00,,SCT220,0.00,VWS V14.01,2013-02-09 20:50:00,
2013-02-09 16:00:00,24.9,3.5,30.04,NW,311,5.0,14.0,39,0.00,,SCT220,0.00,VWS V14.01,2013-02-09 21:00:00,
2013-02-09 16:10:00,24.9,3.5,30.05,NW,325,8.0,16.0,39,0.00,,SCT200,0.00,VWS V14.01,2013-02-09 21:10:00,
2013-02-09 16:20:00,24.6,3.7,30.05,NW,307,6.0,14.0,40,0.00,,SCT200,0.00,VWS V14.01,2013-02-09 21:20:00,
2013-02-09 16:30:00,24.1,3.8,30.06,NNW,329,4.0,13.0,41,0.00,,SCT200,0.00,VWS V14.01,2013-02-09 21:30:00,
2013-02-09 16:40:00,23.5,4.8,30.06,NW,305,4.0,10.0,44,0.00,,SCT200,0.00,VWS V14.01,2013-02-09 21:40:00,
2013-02-09 16:50:00,23.0,4.3,30.06,WNW,291,11.0,11.0,44,0.00,,SCT200,0.00,VWS V14.01,2013-02-09 21:50:00,
2013-02-09 17:00:00,20.0,7.2,30.13,WSW,242,1.0,8.0,57,0.00,,OVC006,0.00,VWS V14.01,2013-02-09 22:00:00,
2013-02-09 17:01:00,22.7,4.6,30.07,WNW,288,12.0,12.0,45,0.00,,SCT200,0.00,VWS V14.01,2013-02-09 22:01:00,
2013-02-09 17:10:00,19.8,7.4,30.13,West,265,3.0,8.0,58,0.00,,OVC006,0.00,VWS V14.01,2013-02-09 22:10:00,
2013-02-09 17:11:00,22.0,5.8,30.08,West,280,1.0,11.0,49,0.00,,FEW100,0.00,VWS V14.01,2013-02-09 22:11:00,
2013-02-09 17:20:00,21.3,6.4,30.09,NNW,333,5.0,9.0,52,0.00,,FEW100,0.00,VWS V14.01,2013-02-09 22:20:00,
2013-02-09 17:30:00,20.7,6.7,30.10,NNW,338,4.0,13.0,54,0.00,,FEW100,0.00,VWS V14.01,2013-02-09 22:30:00,
2013-02-09 17:40:00,20.5,6.9,30.11,NNW,334,3.0,15.0,55,0.00,,FEW100,0.00,VWS V14.01,2013-02-09 22:40:00,
2013-02-09 17:50:00,20.4,6.8,30.12,WNW,287,7.0,14.0,55,0.00,,FEW100,0.00,VWS V14.01,2013-02-09 22:50:00,
2013-02-09 18:00:00,19.1,7.1,30.16,WSW,243,10.0,10.0,59,0.00,,OVC006,0.00,VWS V14.01,2013-02-09 23:00:00,
2013-02-09 18:01:00,20.0,7.2,30.13,WSW,242,1.0,8.0,57,0.00,,FEW100,0.00,VWS V14.01,2013-02-09 23:01:00,
2013-02-09 18:10:00,19.8,7.4,30.13,West,265,3.0,8.0,58,0.00,,FEW100,0.00,VWS V14.01,2013-02-09 23:10:00,
2013-02-09 18:20:00,19.8,7.0,30.14,NW,326,6.0,12.0,57,0.00,,FEW100,0.00,VWS V14.01,2013-02-09 23:20:00,
2013-02-09 18:30:00,19.7,7.3,30.15,NNW,335,4.0,14.0,58,0.00,,FEW100,0.00,VWS V14.01,2013-02-09 23:30:00,
2013-02-09 18:40:00,19.4,7.1,30.15,NW,323,4.0,11.0,58,0.00,,FEW100,0.00,VWS V14.01,2013-02-09 23:40:00,
2013-02-09 18:50:00,19.3,7.3,30.15,NW,305,4.0,12.0,59,0.00,,FEW100,0.00,VWS V14.01,2013-02-09 23:50:00,
2013-02-09 19:00:00,17.5,7.1,30.18,NW,318,4.0,12.0,63,0.00,,OVC006,0.00,VWS V14.01,2013-02-10 00:00:00,
2013-02-09 19:01:00,19.1,7.1,30.16,WSW,243,10.0,10.0,59,0.00,,FEW100,0.00,VWS V14.01,2013-02-10 00:01:00,
2013-02-09 19:10:00,18.9,7.3,30.16,WNW,302,5.0,12.0,60,0.00,,CLR,0.00,VWS V14.01,2013-02-10 00:10:00,
2013-02-09 19:20:00,18.6,7.4,30.16,NW,314,2.0,10.0,61,0.00,,CLR,0.00,VWS V14.01,2013-02-10 00:20:00,
2013-02-09 19:30:00,18.3,7.5,30.16,WNW,298,2.0,10.0,62,0.00,,CLR,0.00,VWS V14.01,2013-02-10 00:30:00,
2013-02-09 19:40:00,18.1,7.3,30.17,East,82,0.0,11.0,62,0.00,,CLR,0.00,VWS V14.01,2013-02-10 00:40:00,
2013-02-09 19:50:00,17.7,7.3,30.17,NW,320,3.0,8.0,63,0.00,,CLR,0.00,VWS V14.01,2013-02-10 00:50:00,
2013-02-09 20:00:00,16.5,4.3,30.21,NW,325,4.0,11.0,58,0.00,,OVC006,0.00,VWS V14.01,2013-02-10 01:00:00,
2013-02-09 20:01:00,17.5,7.1,30.18,NW,318,4.0,12.0,63,0.00,,CLR,0.00,VWS V14.01,2013-02-10 01:01:00,
2013-02-09 20:10:00,17.4,6.6,30.18,NNW,330,6.0,8.0,62,0.00,,CLR,0.00,VWS V14.01,2013-02-10 01:10:00,
2013-02-09 20:20:00,17.3,6.2,30.19,NNW,335,4.0,12.0,61,0.00,,CLR,0.00,VWS V14.01,2013-02-10 01:20:00,
2013-02-09 20:30:00,17.0,5.5,30.19,NNW,333,7.0,9.0,60,0.00,,CLR,0.00,VWS V14.01,2013-02-10 01:30:00,
2013-02-09 20:40:00,16.9,5.1,30.20,NNW,334,1.0,9.0,59,0.00,,CLR,0.00,VWS V14.01,2013-02-10 01:40:00,
2013-02-09 20:50:00,16.7,4.5,30.21,East,91,1.0,9.0,58,0.00,,CLR,0.00,VWS V14.01,2013-02-10 01:50:00,
2013-02-09 21:00:00,16.5,4.3,30.21,NW,325,4.0,11.0,58,0.00,,CLR,0.00,VWS V14.01,2013-02-10 02:00:00,
2013-02-09 21:10:00,16.4,3.5,30.22,WSW,238,1.0,7.0,56,0.00,,CLR,0.00,VWS V14.01,2013-02-10 02:10:00,
2013-02-09 21:20:00,16.0,3.5,30.22,NNE,25,1.0,6.0,57,0.00,,CLR,0.00,VWS V14.01,2013-02-10 02:20:00,
2013-02-09 21:30:00,15.9,3.0,30.23,NW,326,3.0,8.0,56,0.00,,CLR,0.00,VWS V14.01,2013-02-10 02:30:00,
2013-02-09 21:40:00,15.9,2.6,30.23,West,278,13.0,13.0,55,0.00,,CLR,0.00,VWS V14.01,2013-02-10 02:40:00,
2013-02-09 21:50:00,15.6,2.7,30.24,West,273,5.0,13.0,56,0.00,,CLR,0.00,VWS V14.01,2013-02-10 02:50:00,
2013-02-09 22:00:00,15.4,2.1,30.24,NNW,334,6.0,9.0,55,0.00,,CLR,0.00,VWS V14.01,2013-02-10 03:00:00,
2013-02-09 22:10:00,15.1,2.2,30.24,NW,316,3.0,5.0,56,0.00,,CLR,0.00,VWS V14.01,2013-02-10 03:10:00,
2013-02-09 22:20:00,15.1,1.9,30.24,West,281,3.0,10.0,55,0.00,,CLR,0.00,VWS V14.01,2013-02-10 03:20:00,
2013-02-09 22:30:00,14.9,1.7,30.25,West,281,5.0,10.0,55,0.00,,CLR,0.00,VWS V14.01,2013-02-10 03:30:00,
2013-02-09 22:40:00,14.7,1.5,30.26,WNW,301,1.0,8.0,55,0.00,,CLR,0.00,VWS V14.01,2013-02-10 03:40:00,
2013-02-09 22:50:00,14.4,1.6,30.26,WNW,296,5.0,8.0,56,0.00,,CLR,0.00,VWS V14.01,2013-02-10 03:50:00,
2013-02-09 23:00:00,12.8,1.9,30.28,NNW,336,1.0,6.0,61,0.00,,OVC006,0.00,VWS V14.01,2013-02-10 04:00:00,
2013-02-09 23:01:00,14.3,1.5,30.26,NW,326,5.0,7.0,56,0.00,,CLR,0.00,VWS V14.01,2013-02-10 04:01:00,
2013-02-09 23:10:00,14.0,1.6,30.27,WNW,295,5.0,12.0,57,0.00,,CLR,0.00,VWS V14.01,2013-02-10 04:10:00,
2013-02-09 23:20:00,13.8,1.4,30.27,WNW,292,5.0,10.0,57,0.00,,CLR,0.00,VWS V14.01,2013-02-10 04:20:00,
2013-02-09 23:30:00,13.3,1.7,30.28,NW,314,1.0,7.0,59,0.00,,CLR,0.00,VWS V14.01,2013-02-10 04:30:00,
2013-02-09 23:40:00,13.4,1.8,30.28,NW,323,5.0,10.0,59,0.00,,CLR,0.00,VWS V14.01,2013-02-10 04:40:00,
2013-02-09 23:50:00,13.2,1.9,30.28,NW,318,2.0,6.0,60,0.00,,CLR,0.00,VWS V14.01,2013-02-10 04:50:00,